Theta_e
302 299 298 297 297 293 290 287 286 284 284 284 285 284 285 284 285 286 288 287 286 285
304 300 297 295 294 293 290 287 285 284 283 282 282 282 283 282 283 284 285 284 284 283
300 298 297 294 289 287 285 284 283 282 281 281 281 281 282 282 283 283 283 283 282 281
298 296 293 290 287 286 284 282 281 280 280 280 280 281 281 282 282 281 281 282 280 280
295 291 288 286 285 283 282 281 280 280 280 280 280 281 281 280 281 280 279 279 279 279
291 289 287 285 283 282 281 280 280 280 279 279 280 280 280 281 280 281 280 279 278 277
290 288 286 284 283 282 281 280 279 280 279 279 280 280 280 280 280 280 279 279 278 278
290 288 286 284 282 281 280 280 279 279 279 279 279 280 280 280 279 278 278 278 278 278
287 286 284 282 281 280 279 279 279 278 278 278 279 281 283 281 279 278 277 276 277 277
286 284 283 282 281 279 279 279 278 278 278 278 279 284 283 281 279 277 277 277 276 276
285 283 282 281 280 280 279 278 278 278 278 279 279 284 284 281 279 278 278 277 277 276
285 283 282 280 280 280 279 278 278 278 278 279 279 284 284 281 278 278 277 277 277 277
285 283 281 281 280 280 279 278 278 278 279 280 280 284 284 281 279 277 276 276 277 278
284 283 283 282 281 280 279 278 277 277 279 280 280 283 286 283 279 278 276 276 275 276
Wind_Speed
10 6 6 8 8 8 8 7 9 8 8 9 9 8 7 5 4 5 6 8 6 5
11 10 8 10 9 7 7 8 10 10 10 8 8 9 9 7 7 7 7 8 7 6
9 9 9 9 10 9 9 9 10 10 10 9 9 9 10 8 9 10 7 6 8 7
9 10 9 9 8 10 10 10 10 10 10 11 11 10 10 10 11 11 10 8 8 8
11 10 10 9 9 11 11 10 10 10 10 10 10 9 11 12 10 12 11 9 10 8
11 12 12 11 11 11 12 11 11 11 12 11 10 9 8 11 12 11 10 10 9 9
13 12 12 12 12 13 12 13 12 11 11 11 10 11 11 11 10 10 10 9 8 9
12 12 11 12 12 12 12 12 12 12 10 9 9 8 11 11 11 11 10 8 8 7
12 12 13 13 14 13 13 12 13 13 13 12 8 18 20 15 11 12 11 10 8 7
14 14 13 13 14 15 15 14 14 13 13 13 11 23 21 20 10 11 10 10 10 9
15 15 15 15 15 15 14 15 14 14 14 13 11 24 24 22 12 9 11 9 9 9
15 15 16 16 17 15 14 14 14 13 14 14 11 26 25 20 11 10 10 9 10 10
15 16 17 16 16 15 13 14 11 13 14 15 13 27 27 20 9 11 9 9 9 14
14 15 15 14 12 14 13 12 13 13 12 13 13 19 29 27 11 11 10 8 8 8
Wind_Direction
177 172 173 175 171 178 175 162 151 148 138 139 138 127 122 112 112 108 116 110 102 103
181 176 172 172 171 174 154 152 157 148 142 131 129 126 120 121 110 107 105 104 102 100
184 181 179 170 167 154 152 153 154 150 143 140 131 131 129 128 123 118 113 110 114 103
178 179 169 169 156 160 152 155 152 148 145 145 143 140 132 131 129 124 122 121 125 111
170 170 169 166 156 156 152 152 150 149 147 147 146 143 141 136 132 124 127 139 113 126
171 174 177 165 157 156 151 152 154 157 157 155 151 138 137 143 125 140 140 130 144 147
180 180 174 162 161 161 162 158 160 161 156 156 151 149 151 126 131 131 126 145 145 155
175 176 167 163 162 160 163 163 160 153 151 151 150 150 145 135 145 132 142 136 146 153
170 172 170 165 164 163 165 164 162 165 162 160 160 168 152 145 145 147 152 147 160 154
174 172 173 169 168 169 172 167 171 171 166 168 170 165 164 156 149 152 157 161 158 164
178 174 170 173 178 174 172 177 174 173 170 165 171 172 170 166 152 170 146 163 166 175
181 176 174 178 180 177 173 178 179 176 170 173 173 175 175 167 160 150 160 168 172 187
184 182 180 180 181 178 180 178 173 177 177 174 172 181 180 171 162 146 163 174 180 197
188 187 179 177 177 174 176 171 178 174 177 179 180 186 185 182 167 172 165 175 181 189